Flag for Germany Weather past 2 weeks in Dorsten, North Rhine-Westphalia, Germany

Now
66 °F

Sunny.


Feels Like: 66 °F
Forecast: 48 / 65 °F
Wind: 3 mph from Southwest

Location: Essen

Current Time: May 22, 2015 at 6:55:54 PM

Latest Report: May 22, 2015 at 6:00 PM


Visibility: 18 mi

Pressure: 30.21 "Hg

Humidity: 43%

Dew point: 43 °F

Location of DorstenLocation

Historic Weather in Dorsten — Graph

°F

Dorsten temperature yesterday

Maximum temperature yesterday: 61 °F (at 3:00 PM)
Minimum temperature yesterday: 42 °F (at 6:00 AM)
Average temperature yesterday: 52 °F

Past Weeks' High & Low Weather Summary

 TemperatureHumidityPressure
High76 °F (May 11, 7:00 PM)100% (May 16, 4:00 PM)30.35 "Hg (May 16, 4:00 PM)
Low42 °F (May 16, 6:00 AM)37% (May 8, 5:00 PM)29.64 "Hg (May 18, 9:00 PM)
Average55 °F67%30.07 "Hg
* Reported May 7 5:00 PM — May 22 5:00 PM, Dorsten, Weather by CustomWeather, © 2015

Note: Actual official high and low records may vary slightly from our data, if they occured in-between our weather recording intervals... More about our weather records

Advertising

Dorsten weather history for previous 24 hours

 ConditionsComfort  
Time TempWeatherWind HumidityBarometerVisibility
5:00 PM
Fri, May 22
66 °FSunny.2 mph42%30.22 "Hg19 mi
4:00 PM67 °FPartly sunny.1 mph47%30.23 "Hg22 mi
3:00 PM65 °FScattered clouds.2 mph45%30.25 "Hg22 mi
2:00 PM64 °FPassing clouds.3 mph45%30.27 "Hg17 mi
1:00 PM62 °FOvercast.2 mph51%30.29 "Hg19 mi
12:00 PM62 °FOvercast.2 mph51%30.31 "Hg19 mi
11:00 AM62 °FOvercast.2 mph51%30.32 "Hg15 mi
10:00 AM57 °FOvercast.2 mph63%30.34 "Hg17 mi
9:00 AM55 °FScattered clouds.2 mph67%30.34 "Hg12 mi
8:00 AM52 °FPartly sunny.1 mph78%30.33 "Hg10 mi
7:00 AM47 °FPartly sunny.2 mph91%30.34 "Hg7 mi
6:00 AM46 °FOvercast.1 mph92%30.33 "Hg8 mi
5:00 AM47 °FOvercast.1 mph85%30.34 "Hg14 mi
4:00 AM48 °FOvercast.No wind83%30.34 "Hg16 mi
3:00 AM49 °FOvercast.1 mph80%30.34 "Hg18 mi
2:00 AM50 °FOvercast.1 mph78%30.34 "Hg19 mi
1:00 AM53 °FOvercast.2 mph69%30.34 "Hg22 mi
12:00 AM53 °FOvercast.2 mph66%30.34 "Hg25 mi
11:00 PM
Thu, May 21
55 °FPassing clouds.2 mph63%30.33 "Hg22 mi
10:00 PM56 °FPassing clouds.1 mph59%30.32 "Hg17 mi
9:00 PM58 °FPartly sunny.1 mph57%30.29 "Hg19 mi
8:00 PM59 °FOvercast.1 mph54%30.28 "Hg18 mi
7:00 PM60 °FOvercast.2 mph54%30.28 "Hg16 mi
6:00 PM60 °FOvercast.3 mph52%30.27 "Hg19 mi
Weather by CustomWeather, © 2015

See weather overviewHow to use our weather pages